Regional Weather Roundup
Issued by NWS

Home | Current Version | Previous Version | Graphics & Text | Print | Product List | Glossary On
Versions: 1 2 3 4 5 6 7 8 9 10 11 12 13 14 15 16 17 18 19 20 21 22 23 24 25 26 27 28 29 30 31 32 33 34 35 36 37 38 39 40 41 42 43 44 45 46 47 48 49 50
000
ASUS43 KIND 241959
RWRIN

WEATHER ROUNDUP FOR INDIANA
NATIONAL WEATHER SERVICE INDIANAPOLIS IN
400 PM EDT SUN JUL 24 2016

NOTE: "FAIR" INDICATES FEW OR NO CLOUDS BELOW 12,000 FEET WITH NO
SIGNIFICANT WEATHER AND/OR OBSTRUCTIONS TO VISIBILITY.

* - STATION DOES NOT REPORT WEATHER SUCH AS PRECIPITATION OR FOG.

+ - STATION NOT QUALITY CONTROLLED BY THE NATIONAL WEATHER SERVICE.
    USE DATA WITH CAUTION...ESPECIALLY DEWPOINT AND RELATIVE
    HUMIDITY OBSERVATIONS.

INZ001>003-010>013-019-020-242100-
NORTHWEST INDIANA

CITY           SKY/WX    TMP DP  RH WIND       PRES   REMARKS
GARY /AIRPORT/ PTSUNNY   91 N/A N/A S12G23    29.88F
KNOX *+        MOSUNNY   88  68  51 S12G21    29.91F
MONTICELLO +   PTSUNNY   90  72  55 SW12      29.94S HX  97

$$

LMZ046-743>745-242100-
SOUTHERN LAKE MICHIGAN

STATION/POSITION TIME  TEMP    WIND        PRES    WAVE
                       AIR SEA DIR/SP/G            HT
                 (UTC) (F)     (DEG/KT/KT) (MB)    (FT)
BURNS HARBOR     1900   87     200/ 13/ 19 1012.9F
MICHIGAN CITY    1900   86     160/ 14/ 17   N/A
5NW MICH CITY    1900   82 74  200/ 10/ 16   N/A     2

$$

INZ004-005-014>016-021>024-242100-
NORTH CENTRAL INDIANA

CITY           SKY/WX    TMP DP  RH WIND       PRES   REMARKS
ELKHART        CLOUDY    90  81  74 S16       29.92F HX 108
GOSHEN         MOSUNNY   90  74  59 SW13      29.93F HX  99
SOUTH BEND     CLOUDY    89  76  65 S17       29.92F HX 100

$$

INZ006>009-017-018-025>027-242100-
NORTHEAST INDIANA

CITY           SKY/WX    TMP DP  RH WIND       PRES   REMARKS
ANGOLA *+        N/A     84  79  84 S9        29.95F HX  96
FORT WAYNE     PTSUNNY   90  73  57 SW16      29.96F HX  98

$$

INZ028-029-035-036-043>045-051>053-242100-
WEST CENTRAL INDIANA

CITY           SKY/WX    TMP DP  RH WIND       PRES   REMARKS
CRAWFORDSVL +  MOSUNNY   88  78  71 S10       29.97S HX 101
LAFAYETTE      MOSUNNY   91  77  63 SW10      29.94F HX 104
TERRE HAUTE    MOSUNNY   92  77  61 S12       29.96F HX 105

$$

INZ030>032-037>040-046>048-054>057-064-065-242100-
CENTRAL INDIANA

CITY           SKY/WX    TMP DP  RH WIND       PRES   REMARKS
COLUMBUS       PTSUNNY   90  77  66 SW6       29.98F HX 102
INDIANAPOLIS   PTSUNNY   92  75  57 SW12      29.97F HX 103
-EAGLE CREEK   MOSUNNY   93  74  53 S8G17     29.96F HX 103
KOKOMO *+      PTSUNNY   91  73  55 SW15      29.96S HX 100
SHELBYVILLE    MOSUNNY   92  76  59 SW9       29.98F HX 104

$$

INZ033-034-041-042-049-050-058-059-242100-
EAST CENTRAL INDIANA

CITY           SKY/WX    TMP DP  RH WIND       PRES   REMARKS
MUNCIE         MOSUNNY   93  74  53 S12       29.97F HX 103

$$

INZ060-061-067>069-081>083-085>088-242100-
SOUTHWEST INDIANA

CITY           SKY/WX    TMP DP  RH WIND       PRES   REMARKS
EVANSVILLE     MOSUNNY   91  75  59 SW7       29.97F HX 101
HUNTINGBURG *+ PTSUNNY   91  75  59 S6        29.98F HX 102

$$

INZ062-063-066-070>080-084-089>092-242100-
SOUTH CENTRAL AND SOUTHEAST INDIANA

CITY           SKY/WX    TMP DP  RH WIND       PRES   REMARKS
BLOOMINGTON    MOSUNNY   90  75  61 S9        29.99F HX 100
MADISON *+     MOSUNNY   91  70  49 S8        30.02S HX  97

$$





USA.gov is the U.S. government's official web portal to all federal, state and local government web resources and services.